Weather History for KEWR - December, 2012

Change the Weather History Date:

Friday, December 21, 2012

  Actual Average Record
Temperature  
Mean Temperature 47 °F 35 °F  
Max Temperature 57 °F 42 °F 64 °F (2013)
Min Temperature 36 °F 28 °F 0 °F (1942)
Degree Days  
Heating Degree Days 18 30  
Month to date heating degree days 430 567  
Since 1 July heating degree days 1304 1435  
Cooling Degree Days 0 0  
Month to date cooling degree days 0 0  
Year to date cooling degree days 1450 1192  
Moisture  
Dew Point 41 °F    
Average Humidity 74    
Maximum Humidity 93    
Minimum Humidity 55    
Precipitation  
Precipitation 0.91 in 0.12 in 2.00 in (1973)
Month to date precipitation 2.87 2.64  
Year to date precipitation 34.16 45.08  
Snow  
Snow 0.00 in 0.20 in 3.30 in (1962)
Month to date snowfall 0.0 3.1  
Since 1 July snowfall 6.6 3.5  
Snow Depth 0.00 in    
Sea Level Pressure  
Sea Level Pressure 29.30 in    
Wind  
Wind Speed 21 mph (SSW)    
Max Wind Speed 35 mph    
Max Gust Speed 49 mph    
Visibility 7 miles    
Events Rain    
T = Trace of Precipitation, MM = Missing Value Source: NWS Daily Summary

Daily Weather History Graph

Daily Weather History Graph

Search for Another Location

Airport or City:

Trip Planner

Search our weather history database for the weather conditions in past years. The results will help you decide how hot, cold, wet, or windy it might be!

Date:

Astronomy

Dec. 21, 2012 Rise Set
Actual Time 7:17 AM EST 4:32 PM EST
Civil Twilight 6:46 AM EST 5:03 PM EST
Nautical Twilight 6:11 AM EST 5:38 PM EST
Astronomical Twilight 5:38 AM EST 6:11 PM EST
Moon 12:19 PM EST (12/21) 1:00 AM EST (12/21)
Length of Visible Light 10h 17m
Length of Day
9h 15m
Waxing Gibbous, 64% of the Moon is Illuminated
Dec 21
Waxing Gibbous
Dec 28
Full
Jan 4
Last Quarter
Jan 11
New
Jan 18
First Quarter

Hourly Weather History & Observations

Time (EST) Temp. Windchill Dew Point Humidity Pressure Visibility Wind Dir Wind Speed Gust Speed Precip Events Conditions
12:28 AM 48.2 °F - 44.6 °F 87% 29.73 in 9.0 mi ESE 15.0 mph 24.2 mph 0.03 in Rain Light Rain
12:51 AM 50.0 °F - 44.1 °F 80% 29.69 in 9.0 mi ESE 16.1 mph 24.2 mph 0.03 in   Overcast
1:40 AM 50.0 °F - 44.6 °F 82% 29.66 in 5.0 mi ESE 18.4 mph 32.2 mph 0.05 in Rain Rain
1:51 AM 50.0 °F - 45.0 °F 83% 29.65 in 5.0 mi East 18.4 mph 27.6 mph 0.07 in Rain Rain
2:51 AM 51.1 °F - 46.9 °F 86% 29.56 in 5.0 mi ESE 18.4 mph 38.0 mph 0.15 in Rain Rain
3:24 AM 51.8 °F - 48.2 °F 88% 29.49 in 2.5 mi East 26.5 mph 39.1 mph 0.09 in Rain Heavy Rain
3:28 AM 51.8 °F - 48.2 °F 88% 29.48 in 3.0 mi East 25.3 mph 39.1 mph 0.11 in Rain Heavy Rain
3:51 AM 52.0 °F - 48.9 °F 89% 29.45 in 3.0 mi East 26.5 mph 41.4 mph 0.18 in Rain Rain
4:32 AM 53.6 °F - 50.0 °F 88% 29.36 in 4.0 mi ESE 23.0 mph 41.4 mph 0.08 in Rain Light Rain
4:51 AM 53.1 °F - 51.1 °F 93% 29.34 in 4.0 mi ESE 24.2 mph 40.3 mph 0.11 in Rain Rain
5:24 AM 53.6 °F - 51.8 °F 94% 29.30 in 4.0 mi ESE 25.3 mph 42.6 mph 0.02 in Rain Rain
5:51 AM 55.0 °F - 53.1 °F 93% 29.26 in 3.0 mi ESE 24.2 mph 43.7 mph 0.07 in Rain Light Rain
6:51 AM 55.0 °F - 53.1 °F 93% 29.19 in 2.5 mi SE 26.5 mph 44.9 mph 0.13 in Rain Rain
7:11 AM 55.4 °F - 53.6 °F 94% 29.16 in 3.0 mi SE 26.5 mph 43.7 mph 0.04 in Rain Rain
7:33 AM 55.4 °F - 53.6 °F 94% 29.14 in 2.5 mi SE 24.2 mph 46.0 mph 0.08 in Rain Rain
7:51 AM 55.9 °F - 54.0 °F 93% 29.14 in 2.5 mi SSE 33.4 mph 46.0 mph 0.13 in Rain Rain
8:04 AM 55.4 °F - 53.6 °F 94% 29.14 in 4.0 mi SE 26.5 mph 41.4 mph 0.02 in Rain Light Rain
8:51 AM 57.0 °F - 55.0 °F 93% 29.10 in 3.0 mi South 20.7 mph 31.1 mph 0.04 in Rain Light Rain
9:01 AM 55.4 °F - 53.6 °F 94% 29.11 in 5.0 mi SW 20.7 mph 29.9 mph 0.01 in Rain Light Rain
9:11 AM 53.6 °F - 51.8 °F 94% 29.12 in 8.0 mi WSW 17.3 mph 27.6 mph 0.01 in Rain Light Rain
9:42 AM 50.0 °F - 44.6 °F 82% 29.15 in 10.0 mi WSW 20.7 mph 29.9 mph 0.01 in   Mostly Cloudy
9:51 AM 48.9 °F - 45.0 °F 86% 29.16 in 10.0 mi WSW 15.0 mph 26.5 mph 0.01 in   Mostly Cloudy
10:02 AM 48.2 °F - 44.6 °F 87% 29.16 in 10.0 mi SW 18.4 mph 24.2 mph N/A   Mostly Cloudy
10:03 AM 48.2 °F - 44.6 °F 87% 29.16 in 10.0 mi SW 19.6 mph - N/A   Mostly Cloudy
10:40 AM 48.2 °F - 41.0 °F 76% 29.18 in 10.0 mi WSW 18.4 mph 25.3 mph N/A   Mostly Cloudy
10:51 AM 46.9 °F - 39.9 °F 77% 29.18 in 10.0 mi SW 24.2 mph 28.8 mph N/A   Overcast
11:51 AM 45.0 °F 37.6 °F 36.0 °F 71% 29.19 in 10.0 mi WSW 17.3 mph - N/A   Overcast
12:43 PM 44.6 °F 36.4 °F 33.8 °F 66% 29.21 in 10.0 mi West 20.7 mph 28.8 mph 0.00 in   Overcast
12:51 PM 44.1 °F 34.6 °F 32.0 °F 63% 29.21 in 10.0 mi West 26.5 mph 32.2 mph 0.00 in   Overcast
1:51 PM 43.0 °F 33.8 °F 30.0 °F 60% 29.23 in 10.0 mi WSW 23.0 mph 29.9 mph N/A   Overcast
2:51 PM 42.1 °F 31.9 °F 28.0 °F 58% 29.24 in 10.0 mi WSW 26.5 mph 33.4 mph N/A   Overcast
3:51 PM 41.0 °F 31.6 °F 27.0 °F 57% 29.27 in 10.0 mi WSW 20.7 mph 29.9 mph N/A   Overcast
4:51 PM 39.2 °F 29.6 °F 26.6 °F 61% 29.29 in 10.0 mi WSW 19.6 mph 26.5 mph N/A   Overcast
5:51 PM 39.9 °F 32.1 °F 27.0 °F 60% 29.30 in 10.0 mi WSW 13.8 mph - N/A   Overcast
6:51 PM 39.9 °F 30.8 °F 26.1 °F 58% 29.32 in 10.0 mi WSW 18.4 mph 24.2 mph N/A   Overcast
7:51 PM 39.0 °F 30.6 °F 27.0 °F 62% 29.33 in 10.0 mi WSW 15.0 mph 27.6 mph N/A   Overcast
8:51 PM 39.0 °F 30.3 °F 27.0 °F 62% 29.34 in 10.0 mi SW 16.1 mph 24.2 mph N/A   Overcast
9:51 PM 37.9 °F 28.2 °F 27.0 °F 65% 29.35 in 10.0 mi SW 18.4 mph - N/A   Overcast
10:51 PM 37.0 °F 28.5 °F 28.9 °F 73% 29.35 in 10.0 mi WSW 13.8 mph 23.0 mph N/A   Mostly Cloudy
11:51 PM 37.0 °F 27.7 °F 28.9 °F 73% 29.35 in 10.0 mi WSW 16.1 mph 25.3 mph N/A   Mostly Cloudy